パンスターズ彗星

P/2012 T2 ( PanSTARRS )

English version
Home page
Updated on October 3, 2025

---------------------------------------------------------------------

・ プロフィール

発見日 2012年10月10日
発見光度 21.1等
発見者 Pan-STARRS 1 telescope (Haleakala)

・ 写真集

・ 軌道要素

                    Epoch = 2013 Mar.  9.0 TT
     T = 2013 Mar. 25.81236 TT        Peri. = 307.69903
     e = 0.1567736                    Node  =  73.78536 2000.0
     q = 4.8282784 AU                 Incl. =  12.55822
       a =  5.7259572 AU   n = 0.07193362   P =  13.70 years

・ 光度変化

        m1 = -4.0 + 5 logΔ + 30 log r

---------------------------------------------------------------------

軌道要素は、CBET 5609に掲載されたものです。
光度グラフはComet for Windowsで作成したものです。

---------------------------------------------------------------------

Copyright(C) Seiichi Yoshida (comet@aerith.net). All rights reserved.